Weather History for Pascagoula, MS

Change the Weather History Date:

Thursday, March 28, 2013

  Actual Average Record
Temperature  
Mean Temperature 49 °F -  
Max Temperature 66 °F 72 °F 82 °F (2007)
Min Temperature 32 °F 55 °F 32 °F (2013)
Degree Days  
Heating Degree Days 16    
Moisture  
Dew Point 36 °F    
Average Humidity 69    
Maximum Humidity 96    
Minimum Humidity 27    
Precipitation  
Precipitation 0.00 in - - ()
Sea Level Pressure  
Sea Level Pressure 30.33 in    
Wind  
Wind Speed 1 mph (SSW)    
Max Wind Speed 10 mph    
Max Gust Speed 16 mph    
Visibility 9 miles    
Events      
Averages and records for this station are not official NWS values.
T = Trace of Precipitation, MM = Missing Value Source: NWS Daily Summary

Daily Weather History Graph

Daily Weather History Graph

Search for Another Location

Airport:

Trip Planner

Search our weather history database for the weather conditions in past years. The results will help you decide how hot, cold, wet, or windy it might be!

Date:

Astronomy

Mar. 28, 2013 Rise Set
Actual Time 6:47 AM CDT 7:10 PM CDT
Civil Twilight 6:23 AM CDT 7:34 PM CDT
Nautical Twilight 5:55 AM CDT 8:03 PM CDT
Astronomical Twilight 5:27 AM CDT 8:31 PM CDT
Moon 8:51 PM CDT (3/28) 7:23 AM CDT (3/28)
Length of Visible Light 13h 11m
Length of Day
12h 22m
Full, 98% of the Moon is Illuminated
Mar 28
Full
Apr 2
Last Quarter
Apr 10
New
Apr 18
First Quarter
Apr 25
Full

Hourly Weather History & Observations

Time (CDT) Temp. Dew Point Humidity Pressure Visibility Wind Dir Wind Speed Gust Speed Precip Events Conditions
12:53 AM 35.1 °F 34.0 °F 96% 30.34 in 9.0 mi Calm Calm - N/A   Clear
1:53 AM 35.1 °F 33.1 °F 92% 30.33 in 7.0 mi Calm Calm - N/A   Clear
2:53 AM 34.0 °F 32.0 °F 92% 30.32 in 8.0 mi Calm Calm - N/A   Clear
3:53 AM 33.1 °F 30.9 °F 92% 30.32 in 5.0 mi Calm Calm - N/A   Clear
4:53 AM 33.1 °F 30.9 °F 92% 30.33 in 8.0 mi Calm Calm - N/A   Clear
5:53 AM 32.0 °F 30.9 °F 96% 30.34 in 6.0 mi Calm Calm - N/A   Clear
6:53 AM 32.0 °F 30.9 °F 96% 30.35 in 10.0 mi Calm Calm - N/A   Clear
7:00 AM 33.8 °F 30.2 °F 87% 30.35 in 1.8 mi Calm Calm - N/A   Clear
7:04 AM 33.8 °F 30.2 °F 87% 30.35 in 3.0 mi Calm Calm - N/A   Clear
7:53 AM 39.9 °F 37.9 °F 93% 30.36 in 7.0 mi Calm Calm - N/A   Clear
8:53 AM 48.9 °F 43.0 °F 80% 30.38 in 10.0 mi North 4.6 mph - N/A   Clear
9:53 AM 57.0 °F 39.9 °F 53% 30.38 in 10.0 mi North 3.5 mph - N/A   Clear
10:53 AM 61.0 °F 35.1 °F 38% 30.38 in 10.0 mi Variable 4.6 mph - N/A   Clear
11:53 AM 64.9 °F 32.0 °F 29% 30.37 in 10.0 mi Calm Calm - N/A   Clear
12:53 PM 64.9 °F 30.0 °F 27% 30.35 in 10.0 mi Calm Calm - N/A   Clear
1:53 PM 66.0 °F 37.0 °F 34% 30.33 in 10.0 mi SSW 6.9 mph 16.1 mph N/A   Clear
2:53 PM 66.0 °F 36.0 °F 33% 30.30 in 10.0 mi Variable 4.6 mph - N/A   Clear
3:53 PM 64.0 °F 36.0 °F 35% 30.28 in 10.0 mi SSW 8.1 mph 16.1 mph N/A   Clear
4:53 PM 64.0 °F 37.9 °F 38% 30.27 in 10.0 mi SSE 10.4 mph - N/A   Clear
5:53 PM 61.0 °F 37.9 °F 42% 30.28 in 10.0 mi South 4.6 mph - N/A   Clear
6:53 PM 57.9 °F 37.9 °F 47% 30.29 in 10.0 mi SSW 5.8 mph - N/A   Clear
7:53 PM 51.1 °F 41.0 °F 68% 30.30 in 10.0 mi Calm Calm - N/A   Clear
8:53 PM 46.9 °F 41.0 °F 80% 30.31 in 10.0 mi Calm Calm - N/A   Clear
9:53 PM 44.1 °F 41.0 °F 89% 30.32 in 10.0 mi Calm Calm - N/A   Clear
10:53 PM 42.1 °F 39.9 °F 92% 30.33 in 10.0 mi Calm Calm - N/A   Clear
11:53 PM 41.0 °F 39.0 °F 93% 30.33 in 10.0 mi Calm Calm - N/A   Clear